PALAPA D

Last updated on Jan. 29, 2020, 4:37 a.m. UTC

1 35812U 09046A   20028.33328203 -.00000360  00000-0  00000-0 0  9994
2 35812   0.0367  98.5497 0002399 242.2408  19.1720  1.00270590 38289
UTC
Height (km)
Latitude
Longitude
Inclination
Orbital Period
UTC large
Height (km)
Speed (km/s)
/
Latitude / Longitude
Inclination (degrees)
Orbital Period (minutes)
Azimuth
Elevation
Range (km)
Doppler Factor
iOS Compass Heading
iOS Angle

Next 30 passes for location: Hong Kong

Rise time Rise Azimuth (degrees) Set time Set Azimuth (degrees) Duration Max altitude (degrees)

No matching passes for this satellites